{"data":{"norad_id":68244,"intl_designator":"2026-054N","name":"STARLINK-36310","alt_names":[],"object_type":"PAYLOAD","status":"ACTIVE","operator":null,"country":"US","launch_date":"2026-03-17","launch_site_code":"AFETR","launch_vehicle":null,"mission":null,"orbit_class":"UNKNOWN","rcs_meters":null,"size_class":null,"mass_kg":null,"dimensions":null,"purposes":["comms"],"wikipedia_slug":null,"has_3d_model":false,"image_url":null,"decayed_at":null,"tle_current":{"epoch":"2026-05-24T19:44:48.615360Z","epoch_age_seconds":90471,"freshness":"FRESH","line1":"1 68244U 26054N   26144.82278490  .00028935  00000+0  67144-3 0  9999","line2":"2 68244  53.1587 300.7402 0001058  79.4305 280.6821 15.42178540 10682","mean_motion":15.4217854,"eccentricity":0.0001058,"inclination_deg":53.1587,"raan_deg":300.7402,"arg_perigee_deg":79.4305,"mean_anomaly_deg":280.6821,"bstar":0.00067144,"rev_number":1068,"period_min":93.374402681028,"perigee_km":438.95968567273,"apogee_km":440.40233596382,"semimajor_km":6817.8180108183,"source":"CELESTRAK","updated_at":"2026-05-25T13:38:21.885576Z"}}}